Tucson Davis Monthan, AZ

8:31 PM MST on June 24, 2018 (GMT -0700)
Davis-Monthan Air Force Base

Weather History for KDMA - December, 2017

Change the Weather History Date:

Saturday, December 16, 2017

  Actual Average Record
Temperature  
Mean Temperature 54 °F -  
Max Temperature 66 °F 66 °F 79 °F (1969)
Min Temperature 42 °F 41 °F 27 °F (1971)
Degree Days  
Heating Degree Days 11    
Growing Degree Days 4 (Base 50)    
Moisture  
Dew Point 18 °F    
Average Humidity 24    
Maximum Humidity 34    
Minimum Humidity 16    
Precipitation  
Precipitation 0.00 in - - ()
Sea Level Pressure  
Sea Level Pressure 29.79 in    
Wind  
Wind Speed 11 mph (SSE)    
Max Wind Speed 18 mph    
Max Gust Speed 25 mph    
Visibility 10 miles    
Events      
Averages and records for this station are not official NWS values.
T = Trace of Precipitation, MM = Missing Value Source: NWS Daily Summary

Daily Weather History Graph

Daily Weather History Graph

Search for Another Location

Airport or City:

Astronomy

Dec. 16, 2017 Rise Set
Actual Time 7:17 AM MST 5:20 PM MST
Civil Twilight 6:50 AM MST 5:48 PM MST
Nautical Twilight 6:20 AM MST 6:18 PM MST
Astronomical Twilight 5:50 AM MST 6:48 PM MST
Moon 5:45 AM MST (12/16) 4:35 PM MST (12/16)
Length of Visible Light 10h 57m
Length of Day
10h 03m
Waning Crescent, 2% of the Moon is Illuminated
Dec 16
Waning Crescent
Dec 17
New
Dec 26
First Quarter
Jan 1
Full
Jan 8
Last Quarter

Hourly Weather History & Observations

Time (MST) Temp. Windchill Dew Point Humidity Pressure Visibility Wind Dir Wind Speed Gust Speed Precip Events Conditions
12:58 AM 49.6 °F - 17.8 °F 28% 29.92 in 10.0 mi SE 17.3 mph - N/A   Clear
1:58 AM 50.7 °F - 17.1 °F 26% 29.88 in 10.0 mi SE 18.4 mph 25.3 mph N/A   Clear
2:58 AM 48.4 °F - 16.0 °F 27% 29.87 in 10.0 mi SE 12.7 mph - N/A   Clear
3:58 AM 47.3 °F - 14.2 °F 27% 29.85 in 10.0 mi South 8.1 mph - N/A   Clear
4:58 AM 44.6 °F 38.8 °F 13.5 °F 28% 29.83 in 10.0 mi SSE 11.5 mph - N/A   Clear
5:58 AM 42.4 °F 37.5 °F 12.4 °F 29% 29.83 in 10.0 mi SE 8.1 mph - N/A   Clear
6:58 AM 42.1 °F 35.7 °F 12.9 °F 31% 29.83 in 10.0 mi SE 11.5 mph - N/A   Clear
7:58 AM 45.3 °F 40.1 °F 14.9 °F 29% 29.83 in 10.0 mi SE 10.4 mph - N/A   Clear
8:58 AM 50.4 °F - 14.9 °F 24% 29.81 in 10.0 mi SSE 5.8 mph - N/A   Clear
9:58 AM 56.3 °F - 14.5 °F 19% 29.79 in 10.0 mi SE 11.5 mph - N/A   Clear
10:58 AM 62.1 °F - 16.7 °F 17% 29.77 in 10.0 mi SSE 8.1 mph - N/A   Partly Cloudy
11:58 AM 63.9 °F - 18.1 °F 17% 29.75 in 10.0 mi SW 5.8 mph - N/A   Scattered Clouds
12:58 PM 64.9 °F - 20.5 °F 18% 29.72 in 10.0 mi WSW 9.2 mph - N/A   Scattered Clouds
1:58 PM 65.5 °F - 19.6 °F 17% 29.69 in 10.0 mi SSW 9.2 mph - N/A   Overcast
2:58 PM 66.2 °F - 20.1 °F 17% 29.70 in 10.0 mi SSW 12.7 mph - N/A   Partly Cloudy
3:56 PM 65.1 °F - 17.8 °F 16% 29.70 in 10.0 mi SW 4.6 mph - N/A   Clear
4:56 PM 61.0 °F - 18.3 °F 19% 29.73 in 10.0 mi SSW 5.8 mph - N/A   Clear
5:56 PM 59.5 °F - 20.7 °F 22% 29.75 in 10.0 mi SSW 9.2 mph - N/A   Clear
6:56 PM 57.9 °F - 21.4 °F 24% 29.78 in 10.0 mi West 4.6 mph - N/A   Mostly Cloudy
7:56 PM 54.7 °F - 19.6 °F 25% 29.78 in 10.0 mi East 6.9 mph - N/A   Mostly Cloudy
8:56 PM 53.8 °F - 20.5 °F 27% 29.78 in 10.0 mi SE 4.6 mph - N/A   Mostly Cloudy
9:56 PM 52.5 °F - 22.8 °F 31% 29.77 in 10.0 mi SE 8.1 mph - N/A   Clear
10:56 PM 53.2 °F - 23.4 °F 31% 29.77 in 10.0 mi SE 9.2 mph - N/A   Mostly Cloudy
11:58 PM 53.8 °F - 26.1 °F 34% 29.75 in 10.0 mi SE 8.1 mph - N/A   Mostly Cloudy